• In Hungary
  • List of Countries
  • For 7 days
  • Water Temperature
  • Satellite Maps
  • Weather Map
  • News
  • Weather Widgets
  • user-avatar
    Login

    Hourly Weather Sulistrowa

    Today, 21 January, Sunday

    Time Temperature Precipitation Wind Pressure Humidity
    00:00 -3°C° 0 mm 2 mps 727 mmHg 91%
    01:00 -1°C° 0 mm 1 mps 727 mmHg 93%
    02:00 -3°C° 0 mm 2 mps 726 mmHg 93%
    03:00 -3°C° 0 mm 2 mps 726 mmHg 93%
    04:00 -3°C° 0 mm 2 mps 726 mmHg 93%
    05:00 -3°C° 0.1 mm 2 mps 726 mmHg 92%
    06:00 -3°C° 0.1 mm 2 mps 726 mmHg 92%
    07:00 -3°C° 0 mm 2 mps 726 mmHg 92%
    08:00 -2°C° 0.2 mm 2 mps 726 mmHg 90%
    09:00 -2°C° 0.2 mm 2 mps 727 mmHg 88%
    10:00 -1°C° 0.2 mm 2 mps 727 mmHg 86%
    11:00 -1°C° 0.3 mm 2 mps 727 mmHg 86%
    12:00 -1°C° 0.3 mm 2 mps 727 mmHg 86%
    13:00 +1°C° 0.3 mm 1 mps 727 mmHg 86%
    14:00 +1°C° 0.4 mm 1 mps 728 mmHg 89%
    15:00 +1°C° 0.4 mm 1 mps 728 mmHg 92%
    16:00 -1°C° 0.4 mm 2 mps 728 mmHg 95%
    17:00 -2°C° 0.5 mm 2 mps 729 mmHg 95%
    18:00 -2°C° 0.5 mm 2 mps 729 mmHg 95%
    19:00 -2°C° 0.5 mm 3 mps 730 mmHg 95%
    20:00 -2°C° 0.5 mm 3 mps 730 mmHg 95%
    21:00 -3°C° 0.5 mm 4 mps 731 mmHg 95%
    22:00 -4°C° 0.5 mm 4 mps 731 mmHg 94%
    23:00 -4°C° 0.3 mm 4 mps 732 mmHg 94%

    Tomorrow, 22 January, Monday

    Time Temperature Precipitation Wind Pressure Humidity
    00:00 -4°C° 0.3 mm 4 mps 732 mmHg 93%
    01:00 -4°C° 0.3 mm 4 mps 732 mmHg 93%
    02:00 -4°C° 0.2 mm 4 mps 733 mmHg 93%
    03:00 -5°C° 0.2 mm 4 mps 733 mmHg 93%
    04:00 -5°C° 0.2 mm 4 mps 733 mmHg 92%
    05:00 -5°C° 0.1 mm 4 mps 733 mmHg 93%
    06:00 -6°C° 0.1 mm 3 mps 734 mmHg 93%
    07:00 -6°C° 0.1 mm 3 mps 734 mmHg 93%
    08:00 -6°C° 0 mm 3 mps 734 mmHg 91%
    09:00 -5°C° 0 mm 3 mps 734 mmHg 89%
    10:00 -5°C° 0 mm 3 mps 735 mmHg 86%
    11:00 -5°C° 0 mm 3 mps 735 mmHg 84%
    12:00 -3°C° 0 mm 2 mps 735 mmHg 82%
    13:00 -3°C° 0 mm 2 mps 734 mmHg 80%
    14:00 -3°C° 0 mm 2 mps 734 mmHg 82%
    15:00 -4°C° 0 mm 2 mps 735 mmHg 84%
    16:00 -4°C° 0 mm 2 mps 735 mmHg 85%
    17:00 -4°C° 0 mm 2 mps 735 mmHg 87%
    18:00 -5°C° 0 mm 2 mps 735 mmHg 90%
    19:00 -5°C° 0 mm 2 mps 735 mmHg 92%
    20:00 -6°C° 0 mm 2 mps 736 mmHg 93%
    21:00 -4°C° 0 mm 1 mps 736 mmHg 93%
    22:00 -6°C° 0 mm 1 mps 736 mmHg 94%
    23:00 -6°C° 0 mm 1 mps 736 mmHg 94%

    Day after tomorrow, 23 January, Tuesday

    Time Temperature Precipitation Wind Pressure Humidity
    00:00 -6°C° 0 mm 1 mps 736 mmHg 93%
    01:00 -6°C° 0 mm 1 mps 737 mmHg 93%
    02:00 -6°C° 0 mm 1 mps 737 mmHg 92%
    03:00 -6°C° 0 mm 1 mps 737 mmHg 91%
    04:00 -6°C° 0 mm 1 mps 737 mmHg 90%
    05:00 -6°C° 0 mm 1 mps 737 mmHg 90%
    06:00 -6°C° 0 mm 1 mps 737 mmHg 89%
    07:00 -6°C° 0 mm 1 mps 738 mmHg 88%
    08:00 -4°C° 0 mm 1 mps 738 mmHg 86%
    09:00 -5°C° 0 mm 2 mps 739 mmHg 83%
    10:00 -4°C° 0 mm 2 mps 739 mmHg 80%
    11:00 -3°C° 0 mm 2 mps 739 mmHg 79%
    12:00 -2°C° 0 mm 2 mps 740 mmHg 78%
    13:00 -1°C° 0 mm 2 mps 740 mmHg 77%
    14:00 -2°C° 0 mm 2 mps 740 mmHg 80%
    15:00 -3°C° 0 mm 2 mps 740 mmHg 84%
    16:00 -2°C° 0 mm 1 mps 741 mmHg 87%
    17:00 -4°C° 0 mm 2 mps 741 mmHg 88%
    18:00 -5°C° 0 mm 2 mps 742 mmHg 90%
    19:00 -5°C° 0 mm 2 mps 742 mmHg 91%
    20:00 -5°C° 0 mm 2 mps 742 mmHg 91%
    21:00 -5°C° 0 mm 2 mps 743 mmHg 91%
    22:00 -5°C° 0 mm 2 mps 743 mmHg 91%
    23:00 -5°C° 0 mm 2 mps 743 mmHg 91%

    24 January, Wednesday

    Time Temperature Precipitation Wind Pressure Humidity
    00:00 -6°C° 0 mm 3 mps 743 mmHg 91%
    01:00 -6°C° 0 mm 3 mps 743 mmHg 90%
    02:00 -6°C° 0 mm 3 mps 743 mmHg 91%
    03:00 -6°C° 0 mm 3 mps 743 mmHg 91%
    04:00 -6°C° 0 mm 3 mps 743 mmHg 91%
    05:00 -7°C° 0 mm 4 mps 744 mmHg 90%
    06:00 -5°C° 0 mm 4 mps 744 mmHg 90%
    07:00 -5°C° 0 mm 4 mps 744 mmHg 89%
    08:00 -6°C° 0 mm 5 mps 744 mmHg 88%
    09:00 -5°C° 0 mm 5 mps 744 mmHg 86%
    10:00 -4°C° 0 mm 5 mps 744 mmHg 84%
    11:00 -4°C° 0 mm 5 mps 744 mmHg 84%
    12:00 -2°C° 0 mm 5 mps 744 mmHg 83%
    13:00 -3°C° 0 mm 6 mps 744 mmHg 83%
    14:00 -3°C° 0 mm 6 mps 743 mmHg 84%
    15:00 -3°C° 0 mm 6 mps 743 mmHg 85%
    16:00 -4°C° 0 mm 6 mps 743 mmHg 86%
    17:00 -4°C° 0 mm 6 mps 743 mmHg 86%
    18:00 -4°C° 0 mm 6 mps 743 mmHg 87%
    19:00 -4°C° 0 mm 6 mps 743 mmHg 88%
    20:00 -4°C° 0 mm 6 mps 743 mmHg 88%
    21:00 -4°C° 0 mm 6 mps 743 mmHg 88%
    22:00 -4°C° 0 mm 6 mps 743 mmHg 88%
    23:00 -4°C° 0 mm 6 mps 743 mmHg 87%

    25 January, Thursday

    Time Temperature Precipitation Wind Pressure Humidity
    00:00 -3°C° 0 mm 6 mps 743 mmHg 87%
    01:00 -3°C° 0 mm 6 mps 742 mmHg 87%
    02:00 -4°C° 0 mm 6 mps 742 mmHg 87%
    03:00 -4°C° 0 mm 6 mps 742 mmHg 87%
    04:00 -4°C° 0 mm 6 mps 741 mmHg 87%
    05:00 -4°C° 0 mm 6 mps 741 mmHg 87%
    06:00 -4°C° 0 mm 6 mps 741 mmHg 86%
    07:00 -4°C° 0 mm 6 mps 741 mmHg 86%
    08:00 -4°C° 0 mm 6 mps 741 mmHg 84%
    09:00 -3°C° 0 mm 6 mps 741 mmHg 82%
    10:00 -3°C° 0 mm 6 mps 740 mmHg 79%
    11:00 -2°C° 0 mm 6 mps 740 mmHg 77%
    12:00 -2°C° 0 mm 6 mps 739 mmHg 75%
    13:00 -1°C° 0 mm 6 mps 739 mmHg 73%
    14:00 -2°C° 0 mm 6 mps 739 mmHg 73%
    15:00 -1°C° 0 mm 5 mps 738 mmHg 73%
    16:00 -1°C° 0 mm 5 mps 738 mmHg 73%
    17:00 -2°C° 0 mm 5 mps 738 mmHg 73%
    18:00 -2°C° 0 mm 5 mps 738 mmHg 73%
    19:00 -2°C° 0 mm 5 mps 738 mmHg 73%
    20:00 -2°C° 0 mm 5 mps 738 mmHg 72%
    21:00 -2°C° 0 mm 5 mps 738 mmHg 72%
    22:00 -2°C° 0 mm 5 mps 737 mmHg 71%
    23:00 -2°C° 0 mm 5 mps 737 mmHg 72%

    26 January, Friday

    Time Temperature Precipitation Wind Pressure Humidity
    00:00 -3°C° 0 mm 4 mps 737 mmHg 73%
    01:00 -3°C° 0 mm 4 mps 737 mmHg 74%
    02:00 -3°C° 0 mm 4 mps 736 mmHg 74%
    03:00 -3°C° 0 mm 4 mps 736 mmHg 74%
    04:00 -3°C° 0 mm 4 mps 736 mmHg 75%
    05:00 -3°C° 0 mm 4 mps 736 mmHg 74%
    06:00 -2°C° 0 mm 5 mps 735 mmHg 73%
    07:00 -2°C° 0 mm 5 mps 735 mmHg 73%
    08:00 -2°C° 0 mm 5 mps 735 mmHg 72%
    09:00 -1°C° 0 mm 5 mps 735 mmHg 72%
    10:00 0°C° 0 mm 5 mps 735 mmHg 71%
    11:00 0°C° 0 mm 5 mps 735 mmHg 71%
    12:00 +1°C° 0 mm 5 mps 735 mmHg 71%
    13:00 +1°C° 0 mm 5 mps 735 mmHg 72%
    14:00 +1°C° 0 mm 5 mps 735 mmHg 72%
    15:00 0°C° 0 mm 4 mps 735 mmHg 72%
    16:00 0°C° 0 mm 4 mps 735 mmHg 72%
    17:00 0°C° 0 mm 4 mps 735 mmHg 72%
    18:00 -1°C° 0 mm 4 mps 735 mmHg 71%
    19:00 -1°C° 0 mm 4 mps 735 mmHg 71%
    20:00 -1°C° 0 mm 4 mps 735 mmHg 71%
    21:00 -1°C° 0 mm 4 mps 735 mmHg 71%
    22:00 -1°C° 0 mm 4 mps 736 mmHg 71%
    23:00 -1°C° 0 mm 4 mps 736 mmHg 72%
    Show more